Left ArrowRight Arrow

39.12711, -84.51439

Hourly Observations for June 17, 2024

Temp ( °F °C ) Dew Point ( °F °C ) Humidity (%) Winds ( mph kmh ) Pressure ( in mb ) Visibility ( mi km ) Precip ( " mm )
12:53 am 00:53 Clear 73 22.8 68 20 84 84 Calm 30.01 1016 8 13 0.00 0.00
1:53 am 01:53 Clear 72 22.2 68 20 87 87 Calm 30.00 1016 8 13 0.00 0.00
2:53 am 02:53 Clear 70 21.1 68 20 93 93 Calm 30.01 1016 7 11 0.00 0.00
3:53 am 03:53 Clear 71 21.7 68 20 90 90 Calm 30.01 1016 7 11 0.00 0.00
4:53 am 04:53 Clear with Mist and Fog 70 21.1 68 20 93 93 Calm 30.02 1017 6 10 0.00 0.00
5:53 am 05:53 Clear with Mist and Fog 70 21.1 68 20 93 93 Calm 30.03 1017 4 6 0.00 0.00
6:53 am 06:53 Sunny with Mist and Fog 70 21.1 68 20 93 93 Calm 30.05 1018 3 5 0.00 0.00
7:53 am 07:53 Sunny 76 24.4 71 21.7 85 85 Calm 30.06 1018 8 13 0.00 0.00
8:53 am 08:53 Sunny 81 27.2 73 22.8 77 77 S 6 9 30.07 1018 7 11 0.00 0.00
9:53 am 09:53 Sunny 86 30 73 22.8 65 65 SW 7 11 30.07 1018 7 11 0.00 0.00
10:53 am 10:53 Sunny 89 31.7 74 23.3 61 61 SSW 8 13 30.08 1019 8 13 0.00 0.00
11:53 am 11:53 Sunny 91 32.8 72 22.2 54 54 Calm 30.08 1019 7 11 0.00 0.00
12:53 pm 12:53 Mostly Sunny 92 33.3 74 23.3 56 56 S 9 15 30.06 1018 7 11 0.00 0.00
1:53 pm 13:53 Sunny 93 33.9 75 23.9 56 56 S 10 17 30.05 1018 8 13 0.00 0.00
2:53 pm 14:53 Mostly Sunny 94 34.4 71 21.7 48 48 SW 12 19 30.03 1017 9 14 0.00 0.00
3:53 pm 15:53 Partly Cloudy 94 34.4 70 21.1 46 46 SSW 14 22 30.01 1016 9 14 0.00 0.00
4:53 pm 16:53 Sunny 91 32.8 72 22.2 54 54 SSW 10 17 30.01 1016 8 13 0.00 0.00
5:53 pm 17:53 Sunny 91 32.8 73 22.8 56 56 S 8 13 29.99 1016 8 13 0.00 0.00
6:53 pm 18:53 Sunny 91 32.8 71 21.7 52 52 SSW 9 15 29.99 1016 9 14 0.00 0.00
7:53 pm 19:53 Sunny 87 30.6 72 22.2 61 61 S 10 17 30.01 1016 9 14 0.00 0.00
8:53 pm 20:53 Sunny 82 27.8 72 22.2 72 72 S 5 7 30.02 1017 9 14 0.00 0.00
9:53 pm 21:53 Clear 79 26.1 72 22.2 79 79 SW 6 9 30.04 1017 9 14 0.00 0.00
10:53 pm 22:53 Clear 77 25 72 22.2 84 84 S 5 7 30.05 1018 8 13 0.00 0.00
11:53 pm 23:53 Clear 76 24.4 72 22.2 88 88 SSW 5 7 30.05 1018 8 13 0.00 0.00

Powered by Vaisala Xweather